Flag for Canada Weather past 2 weeks in Kuujjuaq, Quebec, Canada

Now
75 °F

Broken clouds.


Feels Like: 77 °F
Forecast: 63 / 74 °F
Wind: 12 mph from South

Location: Kuujjuaq

Current Time: Jul 31, 2015 at 4:11:52 PM

Latest Report: Jul 31, 2015 at 3:00 PM


Visibility: 15 mi

Pressure: 29.36 "Hg

Humidity: 65%

Dew point: 63 °F

Location of KuujjuaqLocation

Historic Weather in Kuujjuaq — Graph

°F

Kuujjuaq temperature yesterday

Maximum temperature yesterday: 88 °F (at 3:00 PM)
Minimum temperature yesterday: 55 °F (at 3:00 AM)
Average temperature yesterday: 71 °F

Past Weeks' High & Low Weather Summary

 TemperatureHumidityPressure
High88 °F (Jul 30, 3:00 PM)100% (Jul 28, 3:00 AM)30.06 "Hg (Jul 28, 3:00 AM)
Low43 °F (Jul 24, 4:00 AM)32% (Jul 25, 2:00 PM)29.36 "Hg (Jul 31, 2:00 PM)
Average62 °F68%29.81 "Hg
* Reported Jul 16 3:00 PM — Jul 31 3:00 PM, Kuujjuaq, Weather by CustomWeather, © 2015

Note: Actual official high and low records may vary slightly from our data, if they occured in-between our weather recording intervals... More about our weather records

Advertising

Kuujjuaq weather history for previous 24 hours

 ConditionsComfort  
Time TempWeatherWind HumidityBarometerVisibility
3:00 PM
Fri, Jul 31
75 °FBroken clouds.12 mph65%29.36 "Hg15 mi
2:00 PM73 °FPartly sunny.13 mph69%29.36 "Hg15 mi
1:00 PM73 °FPartly sunny.12 mph65%29.37 "Hg15 mi
12:00 PM73 °FPartly sunny.10 mph69%29.38 "Hg15 mi
11:00 AM73 °FPartly sunny.6 mph74%29.39 "Hg15 mi
10:00 AM72 °FPartly sunny.9 mph73%29.40 "Hg15 mi
9:00 AM70 °FBroken clouds.7 mph78%29.40 "Hg15 mi
8:00 AM68 °FPartly sunny.7 mph83%29.41 "Hg15 mi
7:00 AM66 °FPartly sunny.6 mph88%29.41 "Hg15 mi
6:00 AM64 °FPartly sunny.3 mph94%29.41 "Hg15 mi
5:00 AM64 °FMostly cloudy.3 mph94%29.41 "Hg15 mi
4:00 AM64 °FPartly cloudy.No wind88%29.41 "Hg15 mi
3:00 AM64 °FPassing clouds.5 mph94%29.41 "Hg15 mi
2:00 AM66 °FPassing clouds.6 mph83%29.42 "Hg15 mi
1:00 AM66 °FPartly cloudy.6 mph88%29.43 "Hg15 mi
12:00 AM66 °FPassing clouds.5 mph88%29.44 "Hg15 mi
11:00 PM
Thu, Jul 30
68 °FPassing clouds.6 mph83%29.43 "Hg15 mi
10:00 PM68 °FLight rain. Overcast.2 mph83%29.44 "Hg15 mi
9:00 PM68 °FScattered showers. Mostly cloudy.7 mph83%29.45 "Hg15 mi
8:00 PM68 °FLight rain. Mostly cloudy.5 mph83%29.45 "Hg15 mi
7:00 PM72 °FHeavy rain. Partly sunny.12 mph78%29.46 "Hg12 mi
6:49 PM75 °FLight rain. Partly sunny.13 mph65%29.46 "Hg15 mi
6:00 PM81 °FScattered showers. Broken clouds.7 mph48%29.41 "Hg15 mi
5:00 PM84 °FBroken clouds.8 mph40%29.41 "Hg15 mi
4:00 PM88 °FPartly sunny.13 mph33%29.43 "Hg15 mi
Weather by CustomWeather, © 2015

See weather overviewHow to use our weather pages